Time,TemperatureF,DewpointF,PressureIn,WindDirection,WindDirectionDegrees,WindSpeedMPH,WindSpeedGustMPH,Humidity,HourlyPrecipIn,Conditions,Clouds,dailyrainin,SoftwareType,DateUTC
2013-08-09 00:01:00,74.0,73.0,29.91,NNW,337,0.0,0.0,99,0.00,,,0.00,Rainwise IP-100,2013-08-09 05:01:00,
2013-08-09 00:06:00,74.0,73.0,29.91,NNW,337,0.0,0.0,99,0.00,,,0.00,Rainwise IP-100,2013-08-09 05:06:00,
2013-08-09 00:11:00,74.0,73.0,29.91,NNW,337,0.0,0.0,99,0.00,,,0.00,Rainwise IP-100,2013-08-09 05:11:00,
2013-08-09 00:16:00,75.0,74.0,29.90,NNW,337,0.0,1.0,99,0.00,,,0.00,Rainwise IP-100,2013-08-09 05:16:00,
2013-08-09 00:21:00,74.0,73.0,29.90,NNW,337,0.0,1.0,99,0.00,,,0.00,Rainwise IP-100,2013-08-09 05:21:00,
2013-08-09 00:26:00,74.0,73.0,29.90,NNW,337,0.0,0.0,99,0.00,,,0.00,Rainwise IP-100,2013-08-09 05:26:00,
2013-08-09 00:31:00,75.0,74.0,29.90,NNW,337,0.0,0.0,99,0.00,,,0.00,Rainwise IP-100,2013-08-09 05:31:00,
2013-08-09 00:36:00,75.0,74.0,29.90,North,360,0.0,0.0,99,0.06,,,0.01,Rainwise IP-100,2013-08-09 05:36:00,
2013-08-09 00:41:00,75.0,74.0,29.90,North,360,0.0,2.0,99,0.06,,,0.01,Rainwise IP-100,2013-08-09 05:41:00,
2013-08-09 00:46:00,75.0,74.0,29.90,North,360,0.0,1.0,99,0.00,,,0.01,Rainwise IP-100,2013-08-09 05:46:00,
2013-08-09 00:51:00,75.0,74.0,29.89,North,360,0.0,1.0,99,0.00,,,0.01,Rainwise IP-100,2013-08-09 05:51:00,
2013-08-09 00:56:00,75.0,74.0,29.89,North,360,0.0,0.0,99,0.00,,,0.01,Rainwise IP-100,2013-08-09 05:56:00,
2013-08-09 01:01:00,75.0,74.0,29.89,North,360,0.0,0.0,99,0.00,,,0.01,Rainwise IP-100,2013-08-09 06:01:00,
2013-08-09 01:06:00,75.0,74.0,29.89,North,360,0.0,0.0,99,0.00,,,0.01,Rainwise IP-100,2013-08-09 06:06:00,
2013-08-09 01:11:00,74.0,73.0,29.89,North,360,0.0,0.0,99,0.06,,,0.02,Rainwise IP-100,2013-08-09 06:11:00,
2013-08-09 01:16:00,74.0,73.0,29.91,North,360,0.0,0.0,99,0.06,,,0.02,Rainwise IP-100,2013-08-09 06:16:00,
2013-08-09 01:21:00,74.0,73.0,29.91,North,360,0.0,0.0,99,0.00,,,0.02,Rainwise IP-100,2013-08-09 06:21:00,
2013-08-09 01:26:00,74.0,73.0,29.91,West,270,0.0,1.0,99,0.00,,,0.02,Rainwise IP-100,2013-08-09 06:26:00,
2013-08-09 01:31:00,74.0,73.0,29.91,SSW,202,2.0,3.0,99,0.00,,,0.02,Rainwise IP-100,2013-08-09 06:31:00,
2013-08-09 01:36:00,74.0,73.0,29.91,SSW,202,0.0,2.0,99,0.00,,,0.02,Rainwise IP-100,2013-08-09 06:36:00,
2013-08-09 01:41:00,74.0,73.0,29.91,SSW,202,0.0,0.0,99,0.00,,,0.02,Rainwise IP-100,2013-08-09 06:41:00,
2013-08-09 01:46:00,74.0,73.0,29.91,SSW,202,0.0,0.0,99,0.00,,,0.02,Rainwise IP-100,2013-08-09 06:46:00,
2013-08-09 01:51:00,74.0,73.0,29.91,SSW,202,0.0,0.0,99,0.00,,,0.02,Rainwise IP-100,2013-08-09 06:51:00,
2013-08-09 01:56:00,74.0,73.0,29.91,SSW,202,0.0,0.0,99,0.00,,,0.02,Rainwise IP-100,2013-08-09 06:56:00,
2013-08-09 02:01:00,74.0,73.0,29.91,SSW,202,1.0,2.0,99,0.00,,,0.02,Rainwise IP-100,2013-08-09 07:01:00,
2013-08-09 02:02:00,74.0,73.0,29.91,SSW,202,2.0,2.0,99,0.00,,,0.02,Rainwise IP-100,2013-08-09 07:02:00,
2013-08-09 02:07:00,74.0,73.0,29.91,SSW,202,1.0,2.0,99,0.00,,,0.02,Rainwise IP-100,2013-08-09 07:07:00,
2013-08-09 02:12:00,74.0,73.0,29.91,SW,225,2.0,3.0,99,0.00,,,0.02,Rainwise IP-100,2013-08-09 07:12:00,
2013-08-09 02:17:00,74.0,73.0,29.91,SW,225,2.0,2.0,99,0.00,,,0.02,Rainwise IP-100,2013-08-09 07:17:00,
2013-08-09 02:22:00,74.0,73.0,29.91,SW,225,1.0,3.0,99,0.00,,,0.02,Rainwise IP-100,2013-08-09 07:22:00,
2013-08-09 02:28:00,74.0,73.0,29.91,SW,225,0.0,2.0,99,0.00,,,0.02,Rainwise IP-100,2013-08-09 07:28:00,
2013-08-09 02:33:00,74.0,73.0,29.91,SW,225,1.0,2.0,99,0.00,,,0.02,Rainwise IP-100,2013-08-09 07:33:00,
2013-08-09 02:38:00,74.0,73.0,29.91,SW,225,2.0,2.0,99,0.00,,,0.02,Rainwise IP-100,2013-08-09 07:38:00,
2013-08-09 02:43:00,74.0,73.0,29.91,SW,225,0.0,2.0,99,0.00,,,0.02,Rainwise IP-100,2013-08-09 07:43:00,
2013-08-09 02:48:00,74.0,73.0,29.91,WNW,292,2.0,4.0,99,0.00,,,0.02,Rainwise IP-100,2013-08-09 07:48:00,
2013-08-09 02:53:00,74.0,73.0,29.91,WNW,292,0.0,4.0,99,0.00,,,0.02,Rainwise IP-100,2013-08-09 07:53:00,
2013-08-09 02:57:00,74.0,73.0,29.91,WNW,292,2.0,3.0,99,0.00,,,0.02,Rainwise IP-100,2013-08-09 07:57:00,
2013-08-09 03:02:00,74.0,73.0,29.91,WNW,292,0.0,3.0,99,0.00,,,0.02,Rainwise IP-100,2013-08-09 08:02:00,
2013-08-09 03:07:00,74.0,73.0,29.91,West,270,1.0,3.0,99,0.00,,,0.02,Rainwise IP-100,2013-08-09 08:07:00,
2013-08-09 03:12:00,74.0,73.0,29.91,SW,225,3.0,3.0,99,0.12,,,0.04,Rainwise IP-100,2013-08-09 08:12:00,
2013-08-09 03:17:00,74.0,73.0,29.91,ENE,67,5.0,7.0,99,0.90,,,0.21,Rainwise IP-100,2013-08-09 08:17:00,
2013-08-09 03:23:00,74.0,73.0,29.91,WSW,247,4.0,6.0,99,1.38,,,0.27,Rainwise IP-100,2013-08-09 08:23:00,
2013-08-09 03:28:00,74.0,73.0,29.91,SW,225,1.0,4.0,99,0.66,,,0.28,Rainwise IP-100,2013-08-09 08:28:00,
2013-08-09 03:33:00,74.0,73.0,29.91,SE,135,0.0,7.0,99,0.42,,,0.34,Rainwise IP-100,2013-08-09 08:33:00,
2013-08-09 03:38:00,73.0,72.0,29.94,NW,315,6.0,7.0,99,0.66,,,0.39,Rainwise IP-100,2013-08-09 08:38:00,
2013-08-09 03:43:00,73.0,72.0,29.94,WSW,247,2.0,7.0,99,0.48,,,0.42,Rainwise IP-100,2013-08-09 08:43:00,
2013-08-09 03:49:00,73.0,72.0,29.95,NW,315,6.0,8.0,99,0.24,,,0.44,Rainwise IP-100,2013-08-09 08:49:00,
2013-08-09 03:54:00,73.0,72.0,29.92,ENE,67,0.0,8.0,99,0.18,,,0.46,Rainwise IP-100,2013-08-09 08:54:00,
2013-08-09 04:00:00,73.0,72.0,29.92,WSW,247,0.0,4.0,99,0.12,,,0.47,Rainwise IP-100,2013-08-09 09:00:00,
2013-08-09 04:05:00,73.0,72.0,29.93,NNW,337,0.0,3.0,99,0.18,,,0.49,Rainwise IP-100,2013-08-09 09:05:00,
2013-08-09 04:10:00,73.0,72.0,29.93,NNW,337,0.0,2.0,99,0.18,,,0.50,Rainwise IP-100,2013-08-09 09:10:00,
2013-08-09 04:15:00,72.0,71.0,29.93,NW,315,1.0,5.0,99,0.12,,,0.51,Rainwise IP-100,2013-08-09 09:15:00,
2013-08-09 04:20:00,72.0,71.0,29.92,West,270,0.0,5.0,99,0.06,,,0.51,Rainwise IP-100,2013-08-09 09:20:00,
2013-08-09 04:25:00,72.0,71.0,29.92,SE,135,0.0,0.0,99,0.06,,,0.52,Rainwise IP-100,2013-08-09 09:25:00,
2013-08-09 04:30:00,72.0,71.0,29.91,SSE,157,1.0,1.0,99,0.12,,,0.53,Rainwise IP-100,2013-08-09 09:30:00,
2013-08-09 04:35:00,72.0,71.0,29.92,SW,225,3.0,3.0,99,0.06,,,0.54,Rainwise IP-100,2013-08-09 09:35:00,
2013-08-09 04:40:00,71.0,70.0,29.92,SW,225,3.0,3.0,99,0.12,,,0.55,Rainwise IP-100,2013-08-09 09:40:00,
2013-08-09 04:45:00,71.0,70.0,29.92,SSW,202,3.0,4.0,99,0.18,,,0.56,Rainwise IP-100,2013-08-09 09:45:00,
2013-08-09 04:50:00,71.0,70.0,29.91,ESE,112,0.0,4.0,99,0.06,,,0.56,Rainwise IP-100,2013-08-09 09:50:00,
2013-08-09 04:55:00,71.0,70.0,29.92,South,180,0.0,2.0,99,0.00,,,0.56,Rainwise IP-100,2013-08-09 09:55:00,
2013-08-09 05:00:00,71.0,70.0,29.92,West,270,0.0,3.0,99,0.00,,,0.56,Rainwise IP-100,2013-08-09 10:00:00,
2013-08-09 05:05:00,71.0,70.0,29.92,SE,135,1.0,1.0,99,0.00,,,0.56,Rainwise IP-100,2013-08-09 10:05:00,
2013-08-09 05:10:00,71.0,70.0,29.92,SE,135,0.0,1.0,99,0.00,,,0.56,Rainwise IP-100,2013-08-09 10:10:00,
2013-08-09 05:15:00,71.0,70.0,29.92,South,180,2.0,4.0,99,0.00,,,0.56,Rainwise IP-100,2013-08-09 10:15:00,
2013-08-09 05:20:00,71.0,70.0,29.93,NE,45,0.0,4.0,99,0.00,,,0.56,Rainwise IP-100,2013-08-09 10:20:00,
2013-08-09 05:25:00,71.0,70.0,29.91,East,90,0.0,3.0,99,0.00,,,0.56,Rainwise IP-100,2013-08-09 10:25:00,
2013-08-09 05:30:00,71.0,70.0,29.91,SSW,202,0.0,5.0,99,0.00,,,0.56,Rainwise IP-100,2013-08-09 10:30:00,
2013-08-09 05:35:00,71.0,70.0,29.92,West,270,0.0,4.0,99,0.00,,,0.56,Rainwise IP-100,2013-08-09 10:35:00,
2013-08-09 05:40:00,71.0,70.0,29.92,West,270,0.0,1.0,99,0.00,,,0.56,Rainwise IP-100,2013-08-09 10:40:00,
2013-08-09 05:45:00,71.0,70.0,29.92,West,270,0.0,3.0,99,0.00,,,0.56,Rainwise IP-100,2013-08-09 10:45:00,
2013-08-09 05:50:00,71.0,70.0,29.92,West,270,0.0,0.0,99,0.00,,,0.56,Rainwise IP-100,2013-08-09 10:50:00,
2013-08-09 05:55:00,71.0,70.0,29.92,West,270,2.0,3.0,99,0.00,,,0.56,Rainwise IP-100,2013-08-09 10:55:00,
2013-08-09 06:00:00,71.0,70.0,29.92,West,270,0.0,3.0,99,0.00,,,0.56,Rainwise IP-100,2013-08-09 11:00:00,
2013-08-09 06:05:00,71.0,70.0,29.93,West,270,0.0,0.0,99,0.06,,,0.57,Rainwise IP-100,2013-08-09 11:05:00,
2013-08-09 06:10:00,71.0,70.0,29.93,West,270,0.0,0.0,99,0.06,,,0.57,Rainwise IP-100,2013-08-09 11:10:00,
2013-08-09 06:15:00,71.0,70.0,29.94,West,270,0.0,0.0,99,0.00,,,0.57,Rainwise IP-100,2013-08-09 11:15:00,
2013-08-09 06:20:00,71.0,70.0,29.94,WSW,247,1.0,0.0,99,0.00,,,0.57,Rainwise IP-100,2013-08-09 11:20:00,
2013-08-09 06:25:00,71.0,70.0,29.95,WSW,247,0.0,2.0,99,0.00,,,0.57,Rainwise IP-100,2013-08-09 11:25:00,
2013-08-09 06:30:00,71.0,70.0,29.95,WSW,247,0.0,2.0,99,0.00,,,0.57,Rainwise IP-100,2013-08-09 11:30:00,
2013-08-09 06:35:00,71.0,70.0,29.94,SSW,202,0.0,2.0,99,0.00,,,0.57,Rainwise IP-100,2013-08-09 11:35:00,
2013-08-09 06:40:00,71.0,70.0,29.94,SSW,202,0.0,2.0,99,0.00,,,0.57,Rainwise IP-100,2013-08-09 11:40:00,
2013-08-09 06:45:00,71.0,70.0,29.94,WSW,247,0.0,1.0,99,0.00,,,0.57,Rainwise IP-100,2013-08-09 11:45:00,
2013-08-09 06:50:00,72.0,71.0,29.94,WSW,247,0.0,0.0,99,0.00,,,0.57,Rainwise IP-100,2013-08-09 11:50:00,
2013-08-09 06:55:00,72.0,71.0,29.94,WSW,247,0.0,0.0,99,0.00,,,0.57,Rainwise IP-100,2013-08-09 11:55:00,
2013-08-09 07:00:00,72.0,71.0,29.94,WSW,247,0.0,0.0,99,0.00,,,0.57,Rainwise IP-100,2013-08-09 12:00:00,
2013-08-09 07:05:00,72.0,71.0,29.94,WSW,247,0.0,0.0,99,0.00,,,0.57,Rainwise IP-100,2013-08-09 12:05:00,
2013-08-09 07:10:00,72.0,71.0,29.95,WSW,247,0.0,2.0,99,0.00,,,0.57,Rainwise IP-100,2013-08-09 12:10:00,
2013-08-09 07:15:00,72.0,71.0,29.95,WSW,247,0.0,0.0,99,0.00,,,0.57,Rainwise IP-100,2013-08-09 12:15:00,
2013-08-09 07:20:00,72.0,71.0,29.95,WSW,247,0.0,0.0,99,0.00,,,0.57,Rainwise IP-100,2013-08-09 12:20:00,
2013-08-09 07:25:00,72.0,71.0,29.95,WSW,247,0.0,0.0,99,0.00,,,0.57,Rainwise IP-100,2013-08-09 12:25:00,
2013-08-09 07:30:00,72.0,71.0,29.95,WSW,247,0.0,1.0,99,0.00,,,0.57,Rainwise IP-100,2013-08-09 12:30:00,
2013-08-09 07:35:00,72.0,71.0,29.96,SW,225,1.0,0.0,99,0.00,,,0.57,Rainwise IP-100,2013-08-09 12:35:00,
2013-08-09 07:40:00,72.0,71.0,29.96,SW,225,1.0,2.0,99,0.00,,,0.57,Rainwise IP-100,2013-08-09 12:40:00,
2013-08-09 07:45:00,72.0,71.0,29.95,SW,225,1.0,2.0,99,0.00,,,0.57,Rainwise IP-100,2013-08-09 12:45:00,
2013-08-09 07:50:00,72.0,71.0,29.95,SW,225,0.0,2.0,99,0.00,,,0.57,Rainwise IP-100,2013-08-09 12:50:00,
2013-08-09 07:55:00,73.0,72.0,29.95,South,180,2.0,3.0,99,0.00,,,0.57,Rainwise IP-100,2013-08-09 12:55:00,
2013-08-09 08:00:00,73.0,72.0,29.95,SSE,157,2.0,6.0,99,0.00,,,0.57,Rainwise IP-100,2013-08-09 13:00:00,
2013-08-09 08:05:00,73.0,72.0,29.96,SSW,202,3.0,6.0,99,0.00,,,0.57,Rainwise IP-100,2013-08-09 13:05:00,
2013-08-09 08:10:00,73.0,72.0,29.96,South,180,1.0,5.0,99,0.00,,,0.57,Rainwise IP-100,2013-08-09 13:10:00,
2013-08-09 08:15:00,74.0,73.0,29.95,SE,135,3.0,6.0,99,0.00,,,0.57,Rainwise IP-100,2013-08-09 13:15:00,
2013-08-09 08:20:00,73.0,72.0,29.95,South,180,0.0,6.0,99,0.00,,,0.57,Rainwise IP-100,2013-08-09 13:20:00,
2013-08-09 08:25:00,74.0,73.0,29.96,West,270,0.0,0.0,99,0.00,,,0.57,Rainwise IP-100,2013-08-09 13:25:00,
2013-08-09 08:30:00,74.0,73.0,29.96,SSE,157,0.0,3.0,99,0.00,,,0.57,Rainwise IP-100,2013-08-09 13:30:00,
2013-08-09 08:35:00,74.0,73.0,29.96,SW,225,0.0,3.0,99,0.00,,,0.57,Rainwise IP-100,2013-08-09 13:35:00,
2013-08-09 08:40:00,74.0,73.0,29.96,SSW,202,2.0,6.0,99,0.00,,,0.57,Rainwise IP-100,2013-08-09 13:40:00,
2013-08-09 08:45:00,74.0,73.0,29.97,SSW,202,2.0,7.0,99,0.00,,,0.57,Rainwise IP-100,2013-08-09 13:45:00,
2013-08-09 08:50:00,74.0,73.0,29.97,SSW,202,3.0,5.0,99,0.00,,,0.57,Rainwise IP-100,2013-08-09 13:50:00,
2013-08-09 08:55:00,75.0,74.0,29.97,SE,135,2.0,5.0,99,0.00,,,0.57,Rainwise IP-100,2013-08-09 13:55:00,
2013-08-09 09:00:00,76.0,76.0,29.97,SSE,157,2.0,4.0,100,0.00,,,0.57,Rainwise IP-100,2013-08-09 14:00:00,
2013-08-09 09:05:00,76.0,76.0,29.97,SW,225,5.0,5.0,100,0.00,,,0.57,Rainwise IP-100,2013-08-09 14:05:00,
2013-08-09 09:10:00,76.0,76.0,29.97,SSW,202,2.0,6.0,100,0.00,,,0.57,Rainwise IP-100,2013-08-09 14:10:00,
2013-08-09 09:16:00,76.0,76.0,29.99,SSE,157,3.0,7.0,100,0.00,,,0.57,Rainwise IP-100,2013-08-09 14:16:00,
2013-08-09 09:21:00,76.0,76.0,29.99,South,180,3.0,7.0,100,0.00,,,0.57,Rainwise IP-100,2013-08-09 14:21:00,
2013-08-09 09:26:00,77.0,77.0,29.98,NW,315,0.0,5.0,100,0.00,,,0.57,Rainwise IP-100,2013-08-09 14:26:00,
2013-08-09 09:31:00,79.0,79.0,29.98,South,180,5.0,8.0,100,0.00,,,0.57,Rainwise IP-100,2013-08-09 14:31:00,
2013-08-09 09:36:00,78.0,76.0,29.97,SW,225,3.0,8.0,94,0.00,,,0.57,Rainwise IP-100,2013-08-09 14:36:00,
2013-08-09 09:41:00,79.0,76.0,29.97,SW,225,3.0,6.0,91,0.00,,,0.57,Rainwise IP-100,2013-08-09 14:41:00,
2013-08-09 09:46:00,79.0,75.0,29.98,South,180,4.0,6.0,89,0.00,,,0.57,Rainwise IP-100,2013-08-09 14:46:00,
2013-08-09 09:51:00,80.0,79.0,29.98,WSW,247,2.0,5.0,97,0.00,,,0.57,Rainwise IP-100,2013-08-09 14:51:00,
2013-08-09 09:56:00,80.0,78.0,29.97,SE,135,0.0,3.0,96,0.00,,,0.57,Rainwise IP-100,2013-08-09 14:56:00,
2013-08-09 10:01:00,80.0,78.0,29.97,SW,225,0.0,5.0,94,0.00,,,0.57,Rainwise IP-100,2013-08-09 15:01:00,
2013-08-09 10:06:00,80.0,76.0,29.97,SW,225,2.0,5.0,88,0.00,,,0.57,Rainwise IP-100,2013-08-09 15:06:00,
2013-08-09 10:11:00,79.0,74.0,29.97,SE,135,0.0,7.0,85,0.00,,,0.57,Rainwise IP-100,2013-08-09 15:11:00,
2013-08-09 10:16:00,81.0,78.0,29.97,WSW,247,0.0,4.0,91,0.00,,,0.57,Rainwise IP-100,2013-08-09 15:16:00,
2013-08-09 10:21:00,81.0,78.0,29.97,WSW,247,1.0,4.0,91,0.00,,,0.57,Rainwise IP-100,2013-08-09 15:21:00,
2013-08-09 10:26:00,81.0,77.0,29.97,SW,225,1.0,3.0,88,0.00,,,0.57,Rainwise IP-100,2013-08-09 15:26:00,
2013-08-09 10:31:00,82.0,77.0,29.97,WSW,247,0.0,4.0,86,0.00,,,0.57,Rainwise IP-100,2013-08-09 15:31:00,
2013-08-09 10:36:00,83.0,76.0,29.97,SSE,157,2.0,3.0,82,0.00,,,0.57,Rainwise IP-100,2013-08-09 15:36:00,
2013-08-09 10:41:00,83.0,77.0,29.97,South,180,0.0,3.0,83,0.00,,,0.57,Rainwise IP-100,2013-08-09 15:41:00,
2013-08-09 10:46:00,84.0,77.0,29.97,SE,135,1.0,5.0,80,0.00,,,0.57,Rainwise IP-100,2013-08-09 15:46:00,
2013-08-09 10:51:00,83.0,74.0,29.96,SE,135,4.0,5.0,76,0.00,,,0.57,Rainwise IP-100,2013-08-09 15:51:00,
2013-08-09 10:56:00,83.0,75.0,29.97,South,180,4.0,6.0,78,0.00,,,0.57,Rainwise IP-100,2013-08-09 15:56:00,
2013-08-09 11:01:00,83.0,76.0,29.97,SE,135,2.0,6.0,80,0.00,,,0.57,Rainwise IP-100,2013-08-09 16:01:00,
2013-08-09 11:06:00,84.0,76.0,29.96,ESE,112,0.0,4.0,79,0.00,,,0.57,Rainwise IP-100,2013-08-09 16:06:00,
2013-08-09 11:11:00,86.0,77.0,29.96,ENE,67,1.0,1.0,76,0.00,,,0.57,Rainwise IP-100,2013-08-09 16:11:00,
2013-08-09 11:16:00,86.0,77.0,29.96,NE,45,4.0,6.0,75,0.00,,,0.57,Rainwise IP-100,2013-08-09 16:16:00,
2013-08-09 11:21:00,84.0,74.0,29.97,ENE,67,6.0,6.0,73,0.00,,,0.57,Rainwise IP-100,2013-08-09 16:21:00,
2013-08-09 11:26:00,85.0,76.0,29.97,ENE,67,5.0,6.0,76,0.00,,,0.57,Rainwise IP-100,2013-08-09 16:26:00,
2013-08-09 11:31:00,85.0,76.0,29.97,ENE,67,6.0,6.0,75,0.00,,,0.57,Rainwise IP-100,2013-08-09 16:31:00,
2013-08-09 11:36:00,86.0,76.0,29.96,West,270,0.0,6.0,74,0.00,,,0.57,Rainwise IP-100,2013-08-09 16:36:00,
2013-08-09 11:41:00,86.0,76.0,29.96,ENE,67,3.0,5.0,74,0.00,,,0.57,Rainwise IP-100,2013-08-09 16:41:00,
2013-08-09 11:46:00,85.0,76.0,29.96,ENE,67,5.0,6.0,76,0.00,,,0.57,Rainwise IP-100,2013-08-09 16:46:00,
2013-08-09 11:51:00,85.0,76.0,29.96,ENE,67,5.0,6.0,76,0.00,,,0.57,Rainwise IP-100,2013-08-09 16:51:00,
2013-08-09 11:56:00,86.0,77.0,29.96,NNE,22,0.0,6.0,76,0.00,,,0.57,Rainwise IP-100,2013-08-09 16:56:00,
2013-08-09 12:01:00,85.0,76.0,29.95,ENE,67,3.0,6.0,74,0.00,,,0.57,Rainwise IP-100,2013-08-09 17:01:00,
2013-08-09 12:06:00,86.0,76.0,29.95,NE,45,4.0,4.0,73,0.00,,,0.57,Rainwise IP-100,2013-08-09 17:06:00,
2013-08-09 12:11:00,87.0,76.0,29.95,NE,45,0.0,5.0,71,0.00,,,0.57,Rainwise IP-100,2013-08-09 17:11:00,
2013-08-09 12:16:00,87.0,76.0,29.94,South,180,0.0,1.0,72,0.00,,,0.57,Rainwise IP-100,2013-08-09 17:16:00,
2013-08-09 12:21:00,87.0,76.0,29.94,ENE,67,0.0,2.0,71,0.00,,,0.57,Rainwise IP-100,2013-08-09 17:21:00,
2013-08-09 12:26:00,88.0,77.0,29.94,ENE,67,2.0,4.0,72,0.00,,,0.57,Rainwise IP-100,2013-08-09 17:26:00,
2013-08-09 12:31:00,87.0,73.0,29.94,ENE,67,2.0,3.0,65,0.00,,,0.57,Rainwise IP-100,2013-08-09 17:31:00,
2013-08-09 12:36:00,88.0,77.0,29.93,South,180,1.0,3.0,70,0.00,,,0.57,Rainwise IP-100,2013-08-09 17:36:00,
2013-08-09 12:41:00,87.0,77.0,29.93,South,180,0.0,2.0,73,0.00,,,0.57,Rainwise IP-100,2013-08-09 17:41:00,
2013-08-09 12:46:00,87.0,77.0,29.94,West,270,0.0,2.0,73,0.00,,,0.57,Rainwise IP-100,2013-08-09 17:46:00,
2013-08-09 12:51:00,87.0,77.0,29.94,West,270,1.0,2.0,74,0.00,,,0.57,Rainwise IP-100,2013-08-09 17:51:00,
2013-08-09 12:56:00,86.0,76.0,29.94,West,270,3.0,3.0,73,0.00,,,0.57,Rainwise IP-100,2013-08-09 17:56:00,
2013-08-09 13:01:00,86.0,76.0,29.94,West,270,0.0,3.0,74,0.00,,,0.57,Rainwise IP-100,2013-08-09 18:01:00,
2013-08-09 13:06:00,87.0,77.0,29.94,WNW,292,1.0,2.0,73,0.00,,,0.57,Rainwise IP-100,2013-08-09 18:06:00,
2013-08-09 13:11:00,87.0,77.0,29.94,SSE,157,3.0,4.0,73,0.00,,,0.57,Rainwise IP-100,2013-08-09 18:11:00,
2013-08-09 13:16:00,88.0,77.0,29.93,West,270,1.0,4.0,70,0.00,,,0.57,Rainwise IP-100,2013-08-09 18:16:00,
2013-08-09 13:21:00,89.0,76.0,29.93,ESE,112,2.0,4.0,66,0.00,,,0.57,Rainwise IP-100,2013-08-09 18:21:00,
2013-08-09 13:26:00,87.0,76.0,29.94,ESE,112,5.0,5.0,71,0.00,,,0.57,Rainwise IP-100,2013-08-09 18:26:00,
2013-08-09 13:31:00,89.0,77.0,29.94,SW,225,2.0,5.0,68,0.00,,,0.57,Rainwise IP-100,2013-08-09 18:31:00,
2013-08-09 13:36:00,89.0,76.0,29.93,SE,135,2.0,5.0,66,0.00,,,0.57,Rainwise IP-100,2013-08-09 18:36:00,
2013-08-09 13:41:00,87.0,74.0,29.93,SW,225,1.0,6.0,67,0.00,,,0.57,Rainwise IP-100,2013-08-09 18:41:00,
2013-08-09 13:46:00,88.0,76.0,29.94,NW,315,1.0,3.0,68,0.00,,,0.57,Rainwise IP-100,2013-08-09 18:46:00,
2013-08-09 13:51:00,88.0,76.0,29.94,SSW,202,0.0,3.0,68,0.00,,,0.57,Rainwise IP-100,2013-08-09 18:51:00,
2013-08-09 13:56:00,89.0,76.0,29.93,SW,225,1.0,3.0,67,0.00,,,0.57,Rainwise IP-100,2013-08-09 18:56:00,
2013-08-09 14:01:00,88.0,74.0,29.93,WSW,247,5.0,6.0,65,0.00,,,0.57,Rainwise IP-100,2013-08-09 19:01:00,
2013-08-09 14:06:00,88.0,77.0,29.94,WSW,247,2.0,5.0,70,0.00,,,0.57,Rainwise IP-100,2013-08-09 19:06:00,
2013-08-09 14:11:00,88.0,76.0,29.94,WSW,247,0.0,5.0,69,0.00,,,0.57,Rainwise IP-100,2013-08-09 19:11:00,
2013-08-09 14:16:00,89.0,76.0,29.93,South,180,2.0,2.0,67,0.00,,,0.57,Rainwise IP-100,2013-08-09 19:16:00,
2013-08-09 14:21:00,88.0,75.0,29.93,SE,135,2.0,5.0,66,0.00,,,0.57,Rainwise IP-100,2013-08-09 19:21:00,
2013-08-09 14:26:00,88.0,75.0,29.92,SSE,157,2.0,3.0,66,0.00,,,0.57,Rainwise IP-100,2013-08-09 19:26:00,
2013-08-09 14:31:00,89.0,74.0,29.92,SE,135,2.0,4.0,63,0.00,,,0.57,Rainwise IP-100,2013-08-09 19:31:00,
2013-08-09 14:36:00,89.0,75.0,29.92,SE,135,1.0,4.0,64,0.00,,,0.57,Rainwise IP-100,2013-08-09 19:36:00,
2013-08-09 14:41:00,90.0,75.0,29.92,SW,225,2.0,3.0,62,0.00,,,0.57,Rainwise IP-100,2013-08-09 19:41:00,
2013-08-09 14:46:00,91.0,75.0,29.92,SE,135,0.0,3.0,60,0.00,,,0.57,Rainwise IP-100,2013-08-09 19:46:00,
2013-08-09 14:51:00,91.0,74.0,29.92,NE,45,6.0,6.0,59,0.00,,,0.57,Rainwise IP-100,2013-08-09 19:51:00,
2013-08-09 14:56:00,91.0,74.0,29.91,ENE,67,4.0,6.0,58,0.00,,,0.57,Rainwise IP-100,2013-08-09 19:56:00,
2013-08-09 15:01:00,90.0,73.0,29.91,NE,45,3.0,5.0,58,0.00,,,0.57,Rainwise IP-100,2013-08-09 20:01:00,
2013-08-09 15:06:00,91.0,74.0,29.92,NE,45,3.0,6.0,58,0.00,,,0.57,Rainwise IP-100,2013-08-09 20:06:00,
2013-08-09 15:11:00,90.0,73.0,29.92,NE,45,2.0,7.0,59,0.00,,,0.57,Rainwise IP-100,2013-08-09 20:11:00,
2013-08-09 15:17:00,91.0,74.0,29.92,West,270,2.0,6.0,58,0.00,,,0.57,Rainwise IP-100,2013-08-09 20:17:00,
2013-08-09 15:26:00,90.0,75.0,29.93,ENE,67,1.0,5.0,63,0.00,,,0.57,Rainwise IP-100,2013-08-09 20:26:00,
2013-08-09 15:31:00,88.0,75.0,29.93,NNW,337,0.0,3.0,66,0.00,,,0.57,Rainwise IP-100,2013-08-09 20:31:00,
2013-08-09 15:36:00,84.0,71.0,29.95,WNW,292,4.0,6.0,65,0.00,,,0.57,Rainwise IP-100,2013-08-09 20:36:00,
2013-08-09 15:41:00,84.0,71.0,29.95,East,90,5.0,7.0,66,0.00,,,0.57,Rainwise IP-100,2013-08-09 20:41:00,
2013-08-09 15:46:00,84.0,72.0,29.93,NE,45,2.0,7.0,67,0.00,,,0.57,Rainwise IP-100,2013-08-09 20:46:00,
2013-08-09 15:51:00,84.0,72.0,29.93,NE,45,0.0,7.0,68,0.00,,,0.57,Rainwise IP-100,2013-08-09 20:51:00,
2013-08-09 15:56:00,84.0,71.0,29.93,ENE,67,2.0,6.0,64,0.00,,,0.57,Rainwise IP-100,2013-08-09 20:56:00,
2013-08-09 16:01:00,85.0,71.0,29.93,North,360,0.0,5.0,63,0.00,,,0.57,Rainwise IP-100,2013-08-09 21:01:00,
2013-08-09 16:06:00,85.0,72.0,29.93,North,360,1.0,2.0,65,0.00,,,0.57,Rainwise IP-100,2013-08-09 21:06:00,
2013-08-09 16:11:00,83.0,72.0,29.93,NE,45,1.0,5.0,69,0.00,,,0.57,Rainwise IP-100,2013-08-09 21:11:00,
2013-08-09 16:16:00,78.0,72.0,29.98,West,270,2.0,10.0,83,0.00,,,0.57,Rainwise IP-100,2013-08-09 21:16:00,
2013-08-09 16:21:00,76.0,72.0,29.98,West,270,5.0,13.0,88,0.00,,,0.57,Rainwise IP-100,2013-08-09 21:21:00,
2013-08-09 16:26:00,76.0,72.0,29.98,West,270,5.0,9.0,88,0.00,,,0.57,Rainwise IP-100,2013-08-09 21:26:00,
2013-08-09 16:31:00,73.0,71.0,30.00,North,360,6.0,9.0,95,2.34,,,0.96,Rainwise IP-100,2013-08-09 21:31:00,
2013-08-09 16:36:00,73.0,72.0,29.99,North,360,4.0,7.0,99,3.36,,,1.13,Rainwise IP-100,2013-08-09 21:36:00,
2013-08-09 16:41:00,73.0,72.0,29.99,ENE,67,4.0,6.0,99,1.08,,,1.14,Rainwise IP-100,2013-08-09 21:41:00,
2013-08-09 16:46:00,73.0,72.0,29.99,East,90,4.0,5.0,99,0.06,,,1.14,Rainwise IP-100,2013-08-09 21:46:00,
2013-08-09 16:51:00,73.0,72.0,29.98,North,360,2.0,6.0,99,0.00,,,1.14,Rainwise IP-100,2013-08-09 21:51:00,
2013-08-09 16:56:00,73.0,72.0,29.97,ENE,67,2.0,6.0,99,0.00,,,1.14,Rainwise IP-100,2013-08-09 21:56:00,
2013-08-09 17:01:00,73.0,72.0,29.97,ENE,67,2.0,3.0,99,0.00,,,1.14,Rainwise IP-100,2013-08-09 22:01:00,
2013-08-09 17:06:00,73.0,72.0,29.97,ENE,67,0.0,3.0,99,0.00,,,1.14,Rainwise IP-100,2013-08-09 22:06:00,
2013-08-09 17:11:00,73.0,72.0,29.97,NE,45,5.0,6.0,99,0.00,,,1.14,Rainwise IP-100,2013-08-09 22:11:00,
2013-08-09 17:16:00,73.0,72.0,29.96,NE,45,2.0,5.0,99,0.00,,,1.14,Rainwise IP-100,2013-08-09 22:16:00,
2013-08-09 17:21:00,73.0,72.0,29.96,NE,45,0.0,5.0,99,0.00,,,1.14,Rainwise IP-100,2013-08-09 22:21:00,
2013-08-09 17:26:00,73.0,72.0,29.96,NE,45,0.0,2.0,99,0.00,,,1.14,Rainwise IP-100,2013-08-09 22:26:00,
2013-08-09 17:31:00,73.0,72.0,29.96,North,360,1.0,5.0,99,0.00,,,1.14,Rainwise IP-100,2013-08-09 22:31:00,
2013-08-09 17:36:00,74.0,73.0,29.95,North,360,2.0,2.0,99,0.00,,,1.14,Rainwise IP-100,2013-08-09 22:36:00,
2013-08-09 17:41:00,74.0,73.0,29.95,North,360,3.0,4.0,99,0.00,,,1.14,Rainwise IP-100,2013-08-09 22:41:00,
2013-08-09 17:46:00,74.0,73.0,29.95,North,360,3.0,4.0,99,0.00,,,1.14,Rainwise IP-100,2013-08-09 22:46:00,
2013-08-09 17:51:00,75.0,74.0,29.95,North,360,4.0,4.0,99,0.00,,,1.14,Rainwise IP-100,2013-08-09 22:51:00,
2013-08-09 17:56:00,76.0,76.0,29.95,NE,45,1.0,4.0,100,0.00,,,1.14,Rainwise IP-100,2013-08-09 22:56:00,
2013-08-09 18:01:00,76.0,76.0,29.95,NE,45,0.0,1.0,100,0.00,,,1.14,Rainwise IP-100,2013-08-09 23:01:00,
2013-08-09 18:06:00,77.0,77.0,29.94,NE,45,0.0,2.0,100,0.00,,,1.14,Rainwise IP-100,2013-08-09 23:06:00,
2013-08-09 18:11:00,76.0,74.0,29.94,West,270,1.0,2.0,96,0.00,,,1.14,Rainwise IP-100,2013-08-09 23:11:00,
2013-08-09 18:16:00,76.0,75.0,29.94,NW,315,0.0,3.0,99,0.00,,,1.14,Rainwise IP-100,2013-08-09 23:16:00,
2013-08-09 18:21:00,76.0,75.0,29.94,North,360,0.0,3.0,99,0.00,,,1.14,Rainwise IP-100,2013-08-09 23:21:00,
2013-08-09 18:26:00,76.0,75.0,29.94,NW,315,0.0,1.0,99,0.00,,,1.14,Rainwise IP-100,2013-08-09 23:26:00,
2013-08-09 18:31:00,77.0,76.0,29.94,NNW,337,0.0,0.0,99,0.00,,,1.14,Rainwise IP-100,2013-08-09 23:31:00,
2013-08-09 18:36:00,77.0,77.0,29.94,North,360,0.0,1.0,100,0.00,,,1.14,Rainwise IP-100,2013-08-09 23:36:00,
2013-08-09 18:41:00,78.0,77.0,29.94,West,270,0.0,0.0,97,0.00,,,1.14,Rainwise IP-100,2013-08-09 23:41:00,
2013-08-09 18:46:00,78.0,76.0,29.95,West,270,1.0,2.0,95,0.00,,,1.14,Rainwise IP-100,2013-08-09 23:46:00,
2013-08-09 18:51:00,78.0,77.0,29.95,North,360,0.0,2.0,98,0.00,,,1.14,Rainwise IP-100,2013-08-09 23:51:00,
2013-08-09 18:56:00,78.0,77.0,29.95,North,360,0.0,0.0,97,0.00,,,1.14,Rainwise IP-100,2013-08-09 23:56:00,
2013-08-09 19:01:00,78.0,76.0,29.95,North,360,2.0,2.0,95,0.00,,,1.14,Rainwise IP-100,2013-08-10 00:01:00,
2013-08-09 19:06:00,77.0,74.0,29.96,NE,45,0.0,4.0,93,0.00,,,1.14,Rainwise IP-100,2013-08-10 00:06:00,
2013-08-09 19:11:00,77.0,75.0,29.96,NE,45,5.0,5.0,94,0.00,,,1.14,Rainwise IP-100,2013-08-10 00:11:00,
2013-08-09 19:16:00,76.0,74.0,29.95,NE,45,5.0,5.0,95,0.00,,,1.14,Rainwise IP-100,2013-08-10 00:16:00,
2013-08-09 19:21:00,76.0,74.0,29.95,NE,45,0.0,6.0,97,0.00,,,1.14,Rainwise IP-100,2013-08-10 00:21:00,
2013-08-09 19:26:00,76.0,75.0,29.96,NE,45,0.0,0.0,98,0.00,,,1.14,Rainwise IP-100,2013-08-10 00:26:00,
2013-08-09 19:31:00,75.0,74.0,29.96,NE,45,1.0,3.0,98,0.00,,,1.14,Rainwise IP-100,2013-08-10 00:31:00,
2013-08-09 19:37:00,75.0,74.0,29.96,ENE,67,4.0,6.0,99,0.00,,,1.14,Rainwise IP-100,2013-08-10 00:37:00,
2013-08-09 19:42:00,75.0,74.0,29.96,NE,45,0.0,6.0,99,0.00,,,1.14,Rainwise IP-100,2013-08-10 00:42:00,
2013-08-09 19:47:00,75.0,74.0,29.97,NE,45,0.0,5.0,99,0.00,,,1.14,Rainwise IP-100,2013-08-10 00:47:00,
2013-08-09 19:52:00,75.0,74.0,29.97,NE,45,1.0,2.0,99,0.00,,,1.14,Rainwise IP-100,2013-08-10 00:52:00,
2013-08-09 19:57:00,75.0,74.0,29.97,NE,45,1.0,3.0,99,0.00,,,1.14,Rainwise IP-100,2013-08-10 00:57:00,
2013-08-09 20:02:00,75.0,74.0,29.97,NNE,22,4.0,5.0,99,0.00,,,1.14,Rainwise IP-100,2013-08-10 01:02:00,
2013-08-09 20:07:00,75.0,74.0,29.97,NNE,22,2.0,5.0,99,0.00,,,1.14,Rainwise IP-100,2013-08-10 01:07:00,
2013-08-09 20:12:00,75.0,74.0,29.97,NNE,22,2.0,3.0,99,0.00,,,1.14,Rainwise IP-100,2013-08-10 01:12:00,
2013-08-09 20:17:00,75.0,74.0,29.97,NE,45,3.0,3.0,99,0.00,,,1.14,Rainwise IP-100,2013-08-10 01:17:00,
2013-08-09 20:22:00,75.0,74.0,29.97,NE,45,3.0,4.0,99,0.00,,,1.14,Rainwise IP-100,2013-08-10 01:22:00,
2013-08-09 20:27:00,75.0,74.0,29.97,NE,45,0.0,4.0,99,0.00,,,1.14,Rainwise IP-100,2013-08-10 01:27:00,
2013-08-09 20:32:00,74.0,73.0,29.97,NE,45,1.0,2.0,99,0.00,,,1.14,Rainwise IP-100,2013-08-10 01:32:00,
2013-08-09 20:37:00,74.0,73.0,29.97,NE,45,0.0,3.0,99,0.00,,,1.14,Rainwise IP-100,2013-08-10 01:37:00,
2013-08-09 20:42:00,74.0,73.0,29.97,NE,45,0.0,0.0,99,0.00,,,1.14,Rainwise IP-100,2013-08-10 01:42:00,
2013-08-09 20:47:00,74.0,73.0,29.97,NE,45,0.0,3.0,99,0.00,,,1.14,Rainwise IP-100,2013-08-10 01:47:00,